Retour au catalogue

STARLINK-31990

ActifCommunicationsVLEO
NORAD 60024·PAYLOAD·🇺🇸 United States

Lancé Jun 8, 2024 depuis Cape Canaveral Space Force Station

Loading…

Prochains Passages (prochaines 24 heures)

TLE

FraisSource: CelesTrak SupGP

Époque: Sep 15, 2026, 02:52 UTC

1 60024C 24111J   26258.11993056 -.00003468  00000+0 -10246-3 0  2584
2 60024  53.1570 274.6742 0001186  91.1658 181.2996 15.34395878    13

Suivez STARLINK-31990 en temps réel avec AllMySat

Download on the App Store